Regional Weather Roundup
Issued by NWS Newport/Morehead, NC

Current Version | Previous Version | Graphics & Text | Print | Product List | Glossary Off
Versions: 1 2 3 4 5 6 7 8 9 10 11 12 13 14 15 16 17 18 19 20 21 22 23 24 25 26 27 28 29 30 31 32 33 34 35 36 37 38 39 40 41 42 43 44 45 46 47 48 49 50

000
ASUS42 KMHX 200322
RWRMHX
WEATHER ROUNDUP FOR EASTERN NORTH CAROLINA
NATIONAL WEATHER SERVICE NEWPORT/MOREHEAD CITY NC
1100 PM EDT FRI SEP 19 2014

NOTE: "FAIR" INDICATES FEW OR NO CLOUDS BELOW 12,000 FEET
WITH NO SIGNIFICANT WEATHER AND/OR OBSTRUCTIONS TO VISIBILITY

NCZ015>017-031-032-045>047-102-103-200400-
NORTH COAST

CITY           SKY/WX    TMP DP  RH WIND       PRES   REMARKS
EDENTON        CLEAR     63  59  88 NE3       30.25S
ELIZABETH CITY CLEAR     67  60  78 NE8       30.25S
KITTY HAWK     PTCLDY    72  59  64 NE9       30.22F
MANTEO         PTCLDY    71  59  66 NE14      30.24S

$$

NCZ045>047-081-094-103-104-200400-
CENTRAL COAST

CITY           SKY/WX    TMP DP  RH WIND       PRES   REMARKS
FRISCO         MOCLDY    70  62  76 NE10G20   30.20S
SWANQUARTER      N/A     68 N/A N/A NE6       30.18S

$$

NCZ095-097-098-100-101-200400-
SOUTHERN COAST

CITY           SKY/WX    TMP DP  RH WIND       PRES   REMARKS
BEAUFORT       CLOUDY    72  63  73 NE9G17    30.19S
CEDAR ISLAND     N/A     73 N/A N/A NE22G28   30.24S
JACKSONVILLE   MOCLDY    69  60  73 NE12      30.19R
NEWPORT        NOT AVBL
PINEY ISLAND   CLOUDY    76  62  62 NE17G26   30.19S
WILMINGTON     MOCLDY    70  61  73 NE12      30.17S


$$

NCZ011>013-027>030-043-044-078>080-089-090>093-098-200400-
COASTAL PLAIN

CITY           SKY/WX    TMP DP  RH WIND       PRES   REMARKS
AHOSKIE        CLEAR     61  57  86 CALM      30.26S
CLINTON        PTCLDY    67  61  80 CALM      30.21S
ELIZABETHTOWN  PTCLDY    67  61  80 CALM      30.19S
GOLDSBORO      CLEAR     66  64  93 NE8       30.20R
GREENVILLE     PTCLDY    64  59  82 CALM      30.24S
HAVELOCK       CLOUDY    72  61  68 NE12      30.21S
KENANSVILLE    PTCLDY    66  58  75 CALM      30.22S
KINSTON        PTCLDY    66  60  79 NE6       30.23S
NEW BERN       MOCLDY    70  59  68 NE9       30.22S
RICHLANDS      MOCLDY    64  57  77 NE8       30.21R
ROANOKE RAPIDS NOT AVBL
ROCKY MOUNT    CLEAR     63  58  83 NE5       30.24S
WASHINGTON     PTCLDY    64  58  81 NE5       30.23S
WHITEVILLE     MOCLDY    69  62  78 NE6       30.17S

$$

AMZ130-135-150-152-154-156-158-170-250-252-270-ANZ085-086-088-633-658-670-200400-
MARINE OBSERVATIONS

STATION/POSITION TIME  TEMP    WIND        PRES    WAVE   SWELL
                       AIR SEA DIR/SP/G            HT/PER HT/PER
                 (UTC) (F)     (DEG/KT/KT) (MB)    (FT/S) (FT/S)
CHESAPEAKE LIGHT 0300   71      80/ 15/ 17 1025.2
BUOY 44014       0300   73 75   50/ 16/ 19 1023.6    4/ 6   2/ 9
DUCK             0300   73 75   50/ 17/ 19 1023.5
2E DUCK          0300                        N/A     5/ 5
OREGON INLET     0300   72 74   30/ 13/ 17 1023.2
BUOY 44095       0300      75                N/A     6/ 6   2/11
20E OREGON INLET NOT AVBL
HATTERAS CG      0300   73 76   40/ 10/ 17 1023.0
DIAMOND BUOY     0300   76      70/ 17/ 21 1021.8    6/ 7   2/10
CAPE LOOKOUT     0300   74      40/ 20/ 24 1021.9
BEAUFORT LAB     0300   72 77   50/  8/ 11 1021.6
30 SE NEW RIVER  0300   77 82   50/ 25/ 31 1020.6    7/ 6   2/ 9
5 SE WRIGHTSVILL 0300   73 80   80/ 21/ 25   N/A
BUOY 41002       0205   80 82   70/ 23/ 27 1018.1    7/ 8   2/11
BUOY 41004       0300   78 82   70/ 23/ 29 1017.5    6/ 6   2/10

$$



USA.gov is the U.S. government's official web portal to all federal, state and local government web resources and services.